Location: Boullarre
(49.1305°N, 3.0047°E)
Time: 15:06:35
(UTC+00:00)

ATLAS 2AS CENTAUR R/B - Pass Details

Date: 03 February 2023
Orbit: 986 x 1226 km, 63.7° (Epoch: 23 March)

Event Time Altitude Azimuth Distance (km) Brightness Sun altitude
Rises 18:22:04 0° 317° (NW) 3,973 6.2 -15.6°
Reaches altitude 10° 18:24:52 10° 314° (NW) 2,974 5.6 -16.1°
Maximum altitude 18:31:41 57° 238° (WSW) 1,238 3.3 -17.2°
Drops below altitude 10° 18:38:07 10° 162° (SSE) 2,802 4.8 -18.2°
Sets 18:40:41 0° 158° (SSE) 3,726 5.4 -18.7°
